Wind_Speed
22 20 18 16 16 16 16 17 17 14 13 14 14 14 14 13 13 12 12 11 12 8 7 6 5 5 6 7 8 9 9 11 12 13 13 15 16 16 13 11 14 14 15
24 21 19 17 17 18 17 17 16 14 13 15 14 14 14 13 10 11 11 10 10 9 5 5 5 5 6 7 7 8 9 9 10 12 13 16 13 12 10 9 17 14 13
25 22 19 18 17 17 16 15 14 14 13 14 14 13 13 12 10 11 12 10 9 8 6 5 6 6 7 6 7 9 7 7 8 10 15 16 13 12 13 14 13 14 13
24 22 19 18 17 17 15 14 14 13 13 14 13 13 12 11 10 10 9 7 8 7 6 5 6 6 7 7 8 9 7 7 6 6 9 12 14 11 11 11 13 13 14
24 22 20 18 16 16 15 14 14 13 13 12 12 12 11 10 10 8 7 7 6 6 4 5 6 6 6 7 9 9 7 7 8 7 8 15 15 12 10 11 11 12 11
27 21 20 17 15 15 14 13 12 12 11 11 11 10 10 9 9 8 6 5 5 4 4 4 4 5 5 7 9 8 7 7 5 3 3 13 11 13 12 10 12 10 11
26 23 18 16 14 14 14 13 11 11 11 10 10 9 9 8 8 7 6 6 6 6 6 5 5 5 4 7 8 7 7 6 6 5 11 8 11 12 13 11 9 10 9
26 22 18 14 13 12 12 12 11 10 10 9 8 9 9 8 7 6 6 6 6 6 6 5 6 5 6 11 11 8 8 9 5 6 5 8 11 11 12 10 9 8 8
25 23 17 13 12 12 11 10 12 12 10 9 9 9 8 7 7 6 6 6 6 6 6 5 6 6 8 10 13 13 10 8 6 2 8 12 9 10 11 10 10 8 8
23 24 19 15 13 12 12 10 11 11 11 10 9 8 9 9 9 8 6 6 5 6 6 7 7 8 10 13 15 12 11 9 10 3 7 12 9 10 10 10 9 9 9
20 21 22 19 16 14 13 12 11 10 10 10 10 9 10 10 10 11 7 13 7 7 7 7 8 9 11 13 15 11 12 10 7 6 3 7 6 10 10 9 9 9 9
13 16 18 20 16 17 16 15 12 12 11 11 11 11 9 10 15 11 15 9 7 8 8 8 8 11 14 12 14 13 13 11 10 9 3 9 6 6 10 11 10 10 9
18 16 16 18 18 17 18 16 18 16 14 14 13 12 11 8 10 13 13 11 6 9 8 9 9 12 13 14 14 14 14 12 11 5 9 13 14 8 10 11 12 11 9
27 21 20 20 19 18 15 14 16 17 15 13 15 13 14 9 9 11 4 11 8 9 6 13 12 13 16 16 14 12 17 11 11 10 10 8 10 10 10 12 14 12 11
27 22 24 22 17 13 15 17 15 16 16 14 17 16 15 11 10 11 10 7 3 6 8 11 13 7 12 16 13 13 11 15 11 10 9 12 12 12 12 12 15 15 14
18 15 18 19 14 13 14 14 13 13 16 15 13 17 13 14 15 16 17 15 10 9 9 12 8 3 20 18 12 16 17 16 16 15 15 13 13 14 16 17 17 18 20
18 18 18 16 13 13 9 11 11 11 12 13 13 11 15 13 14 14 14 16 17 17 13 14 13 10 13 14 17 15 18 18 15 14 14 15 17 17 18 20 18 20 20
17 17 17 15 19 15 11 11 11 13 13 11 9 9 14 13 14 15 13 14 12 10 21 15 14 17 12 15 13 15 19 17 18 15 14 15 18 19 20 19 20 21 21
14 18 16 11 18 10 3 6 12 16 10 6 9 9 14 15 15 17 18 17 14 12 14 19 20 19 16 12 12 15 15 20 16 14 15 17 17 13 17 23 21 17 21
15 18 16 14 10 17 21 35 28 10 10 8 9 13 9 13 14 15 18 20 20 13 15 20 19 17 19 27 22 17 17 20 18 15 18 16 17 19 15 17 21 20 21
10 16 17 10 9 8 14 32 22 13 11 13 11 11 6 10 12 14 19 21 21 19 22 22 23 14 18 24 12 12 16 18 19 14 14 17 20 18 17 17 15 21 26
7 6 7 15 21 19 14 12 24 18 9 9 9 8 10 9 11 14 15 18 19 20 20 24 23 16 14 9 8 11 3 7 13 20 17 16 17 17 16 18 17 22 26
8 7 5 10 15 17 16 16 16 9 4 3 4 5 5 4 10 14 17 16 16 15 19 20 20 19 16 18 16 10 1 4 6 14 18 16 16 16 16 15 15 10 13
8 10 4 7 12 9 9 8 7 3 4 3 2 4 6 7 8 9 13 15 16 16 15 19 17 16 18 19 13 14 17 3 2 1 7 14 18 12 14 15 12 17 9
11 9 9 6 5 6 6 3 1 4 5 7 5 6 7 7 3 7 10 12 13 15 15 16 15 16 17 22 21 23 11 12 10 3 1 3 8 10 8 14 11 16 11
15 11 11 10 7 5 5 4 6 7 6 9 5 8 8 10 12 14 15 12 11 11 13 15 13 14 17 17 21 21 16 5 10 5 3 2 3 2 15 11 3 12 2
Wind_Direction
120 129 132 126 127 128 131 135 136 132 125 125 125 122 121 117 109 112 116 120 122 126 128 129 126 116 104 102 91 97 96 104 103 107 102 100 98 97 97 106 102 101 103
128 132 133 129 133 136 140 137 137 135 129 129 125 125 125 122 119 124 121 120 123 121 124 137 147 135 125 118 110 107 111 113 120 121 117 111 109 103 89 112 132 105 104
129 133 130 131 129 137 137 139 137 136 131 130 126 127 128 124 128 123 128 125 123 113 105 101 115 139 133 128 134 128 130 140 134 139 128 109 120 104 102 101 112 107 110
133 134 129 133 130 129 136 143 145 142 137 137 133 134 133 130 128 129 129 127 115 107 108 103 103 138 131 131 144 144 158 147 143 134 181 121 123 119 117 109 110 112 116
137 136 141 138 133 132 134 140 145 146 142 141 142 140 136 136 131 134 136 127 124 101 110 113 116 126 131 140 150 158 168 152 149 135 132 126 124 127 116 117 120 118 118
136 131 142 142 138 132 132 135 144 145 142 144 142 140 140 137 135 144 136 129 115 129 120 108 123 137 138 150 157 168 169 161 163 177 164 127 145 129 119 116 124 134 132
120 131 138 142 139 139 140 140 139 141 141 142 145 142 142 137 143 154 147 134 135 141 147 132 123 122 124 151 161 168 173 171 137 114 107 127 136 132 133 137 140 133 131
127 131 134 140 138 139 142 145 145 144 144 146 152 150 159 149 146 146 142 140 142 152 162 164 140 140 136 166 156 183 182 195 225 246 166 166 142 145 149 150 151 146 145
131 131 134 139 145 146 146 154 150 149 150 154 161 167 160 157 161 167 174 161 159 170 172 179 163 149 154 175 173 182 184 209 210 264 161 169 148 149 151 158 157 159 150
139 137 143 155 154 154 157 169 164 160 164 169 179 185 177 181 198 198 192 180 183 187 185 184 180 171 169 186 188 192 194 199 224 263 142 179 154 164 156 161 170 172 165
125 141 152 160 165 167 173 180 176 171 175 181 188 196 199 204 215 208 197 201 201 204 200 195 185 186 187 196 201 196 200 201 215 234 325 172 169 169 167 171 183 184 181
148 157 156 166 175 177 179 187 185 187 188 201 206 217 211 232 224 196 201 208 218 222 215 203 198 197 192 200 210 211 209 199 234 200 210 211 224 195 184 179 193 196 195
174 170 180 178 176 192 188 188 187 199 201 215 213 227 217 238 203 214 213 210 211 212 214 201 200 202 203 205 205 215 220 209 231 186 184 199 199 215 197 192 202 201 199
173 177 185 186 186 193 199 188 190 199 194 209 220 223 226 231 236 226 285 210 204 225 231 201 214 208 213 201 219 222 215 209 221 228 199 190 190 210 204 201 206 202 201
167 186 189 193 193 198 193 198 197 203 202 207 215 215 218 223 236 239 241 205 253 223 234 237 220 221 243 225 209 223 216 220 211 215 209 226 210 222 211 207 208 204 201
170 184 174 175 186 192 202 213 217 211 217 224 212 214 216 219 230 241 245 247 246 239 260 231 216 182 232 229 220 210 221 228 227 233 215 220 224 223 223 216 214 210 211
165 182 180 177 190 212 222 226 221 230 229 215 209 224 215 220 231 241 246 267 254 242 244 262 216 235 235 251 236 235 230 226 234 229 222 225 227 222 223 219 215 221 224
171 181 181 192 190 189 210 229 226 235 219 222 232 204 210 229 236 241 247 253 255 265 226 253 258 249 230 246 240 244 235 240 226 227 225 230 224 218 222 215 220 231 237
192 175 185 197 85 80 299 251 245 238 239 218 231 246 229 233 239 250 247 255 253 226 228 232 233 223 219 228 248 250 240 234 228 223 229 234 232 224 235 212 227 233 231
181 179 187 125 40 356 349 330 288 219 205 241 247 245 269 241 251 254 258 259 255 249 243 242 242 236 229 225 222 231 234 237 228 235 232 232 236 228 230 228 221 232 223
208 198 192 202 191 165 215 279 303 237 213 224 226 239 249 251 260 265 269 260 260 256 253 255 258 268 267 242 209 223 240 229 229 222 236 228 240 234 236 242 232 224 221
237 167 195 150 171 184 161 140 204 263 247 222 207 243 272 285 292 284 283 281 270 264 259 257 254 243 242 237 210 233 234 220 224 230 223 232 242 233 233 243 240 232 233
220 218 138 146 168 193 200 198 212 222 231 260 247 270 229 272 293 290 287 287 286 275 268 261 258 251 229 224 248 269 194 216 205 228 219 223 237 232 228 227 248 240 251
180 147 142 175 176 203 193 169 218 252 116 78 10 16 317 278 285 308 298 289 285 277 270 264 260 245 232 232 234 262 252 205 104 55 219 238 239 236 225 245 224 217 246
165 155 154 151 149 145 159 156 75 358 62 114 25 329 317 287 302 354 321 301 288 276 269 260 257 239 227 227 210 224 244 241 214 167 288 262 241 261 254 253 242 239 293
161 163 152 148 152 121 123 85 72 64 37 39 3 357 338 21 10 2 349 331 309 290 271 259 246 242 224 224 232 231 251 281 192 187 215 216 175 247 241 250 8 219 128
Height
786 789 793 795 798 801 803 805 807 810 812 814 816 818 820 823 824 826 827 830 831 834 835 835 837 838 838 839 840 841 842 841 841 842 844 845 847 848 850 852 853 853 854
785 790 794 797 799 801 804 807 809 812 814 815 818 820 822 824 827 829 830 832 833 835 837 837 838 839 840 841 842 842 843 843 843 843 845 846 849 851 852 853 854 855 857
788 792 796 799 802 804 807 810 812 814 816 818 820 823 825 826 828 830 832 834 835 836 837 838 839 840 841 842 843 844 844 844 845 845 846 848 850 852 854 854 855 857 859
790 795 799 802 804 806 808 811 813 816 818 820 822 824 826 828 830 832 834 836 836 837 838 839 840 841 842 843 844 845 844 846 848 849 848 851 852 854 855 856 857 859 860
792 796 799 802 805 807 809 812 815 817 819 822 824 826 828 830 831 834 835 836 838 837 839 840 841 842 842 843 845 845 845 846 849 849 848 852 852 855 857 858 858 860 862
791 797 801 803 806 809 812 815 817 819 821 823 825 827 829 830 832 834 835 836 837 839 840 839 841 841 842 844 844 846 846 847 847 849 851 853 854 856 858 861 861 862 863
792 797 802 805 808 811 812 815 819 820 821 824 825 827 829 831 833 835 835 836 837 838 839 839 840 841 842 844 845 846 847 849 847 849 852 852 854 856 859 862 862 864 865
792 798 803 807 810 813 815 816 818 821 823 825 828 829 830 831 833 834 835 836 836 836 837 838 838 840 840 842 842 845 847 849 851 850 851 852 853 855 858 861 863 864 866
796 799 804 809 812 814 817 819 819 821 824 826 828 829 830 831 832 834 835 835 836 836 835 836 837 837 839 841 840 841 844 847 848 849 850 851 852 854 857 860 863 865 866
794 797 804 809 812 815 816 819 821 821 823 825 828 829 829 831 831 833 833 834 835 834 833 834 834 836 837 838 840 841 842 843 845 849 853 851 852 853 854 860 862 865 866
795 798 802 807 811 814 816 818 821 821 823 824 825 827 828 828 829 830 832 832 833 834 834 834 834 835 837 838 838 840 839 840 845 850 856 859 857 853 853 858 861 864 866
796 799 801 806 809 812 814 816 819 820 822 823 824 824 825 827 828 828 829 830 831 832 833 834 835 836 837 837 838 840 838 839 845 849 850 857 857 854 852 855 861 864 865
795 798 803 806 809 812 812 812 816 819 821 822 824 823 824 825 825 827 826 827 829 830 832 833 834 835 835 837 838 839 838 839 841 848 849 852 854 851 851 854 860 862 864
791 796 800 804 806 809 812 812 813 815 816 819 821 822 822 823 823 824 825 827 828 831 832 831 829 830 835 835 836 838 837 837 839 842 844 847 847 847 849 852 857 860 862
789 793 797 801 806 808 811 811 814 813 814 814 816 817 819 820 822 823 823 824 827 829 827 825 829 839 834 837 831 834 836 837 836 837 838 838 840 844 848 850 854 855 857
786 790 794 799 803 806 809 811 811 811 811 811 812 814 816 817 819 820 822 823 826 826 823 823 829 816 842 837 828 831 835 835 835 835 836 836 838 842 845 848 850 853 853
784 788 792 798 804 808 811 813 813 812 810 811 810 812 813 815 816 817 818 819 822 823 820 817 824 822 827 825 827 831 832 833 832 834 836 837 838 840 844 846 850 852 853
782 786 792 797 800 803 808 813 814 812 812 812 811 810 811 812 814 815 815 817 818 817 816 815 812 811 814 822 827 830 832 834 830 831 832 834 835 837 840 845 846 849 850
781 786 791 797 798 803 811 813 813 811 810 809 811 811 807 808 809 812 812 813 815 814 814 814 812 813 819 821 823 823 825 830 830 829 828 830 832 834 836 839 841 843 843
780 784 790 790 793 790 805 806 800 806 807 808 808 810 808 806 807 808 809 809 810 811 810 809 811 816 820 818 817 815 819 825 824 824 824 826 827 828 833 834 837 840 840
780 781 782 791 793 795 813 812 799 805 805 805 807 807 807 804 805 804 803 804 806 805 806 805 805 812 809 808 817 815 816 818 820 817 820 822 823 824 826 830 833 835 836
779 780 782 789 795 803 808 805 796 804 804 804 807 806 804 800 800 801 801 800 801 800 800 799 803 810 810 810 814 813 812 814 814 815 816 817 819 820 822 826 827 828 832
780 781 784 789 796 798 802 808 805 806 805 805 806 804 802 801 800 799 797 797 797 797 796 795 796 800 803 804 806 812 812 812 807 810 812 815 815 816 819 821 823 827 829
779 781 783 788 793 796 799 798 802 802 804 804 803 801 800 799 798 796 795 794 794 793 793 793 794 794 795 797 804 807 812 807 808 812 812 814 813 815 819 818 821 820 821
780 782 784 787 791 794 793 796 796 798 798 799 800 800 800 799 800 798 795 793 791 791 790 789 790 790 793 795 804 807 807 805 805 810 812 811 812 817 819 819 818 818 819
780 783 786 787 791 793 795 796 796 798 799 800 802 801 801 800 799 797 795 793 790 789 788 787 788 789 791 794 796 801 801 801 802 806 811 812 814 814 814 818 819 819 808